Le nostre stazioni meteo in Italia

Pubblicità
Il mio iltempo24.it
Ustica, Italia (16400): Temperatura & dewpoint: 17.01.2019 05:00:00 - 23.01.2019 05:00:00 (CET)Ustica, Italia (16400): velocità del vento: 17.01.2019 05:00:00 - 23.01.2019 05:00:00 (CET)Ustica, Italia (16400): direzione del vento: 17.01.2019 05:00:00 - 23.01.2019 05:00:00 (CET)Ustica, Italia (16400): reduced air pressure: 17.01.2019 05:00:00 - 23.01.2019 05:00:00 (CET)Ustica, Italia (16400): visibility: 17.01.2019 05:00:00 - 23.01.2019 05:00:00 (CET)Ustica, Italia (16400): ore di luce: 17.01.2019 05:00:00 - 23.01.2019 05:00:00 (CET)
Data & Tempo tt [°C] td [°C] ff [km/h] ff [kn] dd ppp [hPa] vv [km] sd [min]
23.01.2019 05:00:00 - - - - - - - -
23.01.2019 04:00:00 - - - - - - - -
23.01.2019 03:00:00 - - - - - - - -
23.01.2019 02:00:00 - - - - - - - -
23.01.2019 01:00:00 - - - - - - - -
23.01.2019 00:00:00 - - - - - - - -
22.01.2019 23:00:00 - - - - - - - -
22.01.2019 22:00:00 - - - - - - - -
22.01.2019 21:00:00 - - - - - - - -
22.01.2019 20:00:00 - - - - - - - -
22.01.2019 19:00:00 9,4 6,1 29 16 O 1008,1 20 0
22.01.2019 18:00:00 9,8 6,7 29 16 O 1007,9 20 0
22.01.2019 17:00:00 10,2 6,9 29 16 O 1007,4 20 36
22.01.2019 16:00:00 11,8 8,7 31 17 NNO 1007,3 20 60
22.01.2019 15:00:00 11,8 8,1 31 17 NNO 1007,2 20 60
22.01.2019 14:00:00 11,6 9,2 28 15 ONO 1008,3 20 60
22.01.2019 13:00:00 11,6 8,8 28 15 ONO 1008,5 20 60
22.01.2019 12:00:00 11,2 7,9 26 14 ONO 1008,4 20 60
22.01.2019 11:00:00 11,4 8,4 31 17 NNO 1008,7 20 60
22.01.2019 10:00:00 11,2 8,8 31 17 NO 1008,1 20 30
22.01.2019 09:00:00 11,0 9,2 42 23 NO 1007,4 20 -
22.01.2019 08:00:00 11,6 11,1 42 23 NNO 1007,1 20 -
22.01.2019 07:00:00 10,6 10,3 31 17 N 1006,6 16 -
22.01.2019 06:00:00 - - - - - - - -
22.01.2019 05:00:00 - - - - - - - -
22.01.2019 04:00:00 - - - - - - - -
22.01.2019 03:00:00 - - - - - - - -
22.01.2019 02:00:00 - - - - - - - -
22.01.2019 01:00:00 - - - - - - - -
22.01.2019 00:00:00 - - - - - - - -
21.01.2019 23:00:00 - - - - - - - -
21.01.2019 22:00:00 - - - - - - - -
21.01.2019 21:00:00 - - - - - - - -
21.01.2019 20:00:00 - - - - - - - -
21.01.2019 19:00:00 10,4 10,4 24 13 SE 1008,9 16 0
21.01.2019 18:00:00 11,4 11,4 26 14 ESE 1008,7 16 -
21.01.2019 17:00:00 11,0 11,0 24 13 SE 1008,6 20 -
21.01.2019 16:00:00 12,2 12,2 24 13 SE 1008,7 16 -
21.01.2019 15:00:00 11,0 11,0 26 14 SE 1009,7 20 0
21.01.2019 14:00:00 11,0 11,0 24 13 ESE 1009,7 20 -
21.01.2019 13:00:00 11,0 11,0 22 12 SE 1010,9 14 -
21.01.2019 12:00:00 11,4 10,9 26 14 SE 1011,2 16 -
21.01.2019 11:00:00 12,4 10,8 26 14 SE 1011,3 20 -
21.01.2019 10:00:00 12,4 11,3 24 13 SE 1011,1 20 -
21.01.2019 09:00:00 11,6 11,0 26 14 ESE 1011,3 20 -
21.01.2019 08:00:00 11,0 10,5 24 13 SE 1011,5 20 -
21.01.2019 07:00:00 10,4 10,1 26 14 SE 1011,6 16 -
21.01.2019 06:00:00 - - - - - - - -
21.01.2019 05:00:00 - - - - - - - -
21.01.2019 04:00:00 - - - - - - - -
21.01.2019 03:00:00 - - - - - - - -
21.01.2019 02:00:00 - - - - - - - -
21.01.2019 01:00:00 - - - - - - - -
21.01.2019 00:00:00 - - - - - - - -
20.01.2019 23:00:00 - - - - - - - -
20.01.2019 22:00:00 - - - - - - - -
20.01.2019 21:00:00 - - - - - - - -
20.01.2019 20:00:00 - - - - - - - -
20.01.2019 19:00:00 10,6 9,4 22 12 OSO 1013,1 16 -
20.01.2019 18:00:00 11,2 9,8 24 13 SSO 1012,7 16 -
20.01.2019 17:00:00 11,4 9,8 21 11 SO 1012,6 20 -
20.01.2019 16:00:00 12,4 9,0 22 12 SO 1012,4 20 24
20.01.2019 15:00:00 12,8 10,9 24 13 SO 1012,3 20 36
20.01.2019 14:00:00 12,8 10,9 26 14 SO 1013,1 25 60
20.01.2019 13:00:00 13,2 9,8 26 14 SSO 1013,6 20 60
20.01.2019 12:00:00 12,8 10,7 26 14 SSO 1014,2 25 60
20.01.2019 11:00:00 12,6 10,8 24 13 SO 1014,2 25 60
20.01.2019 10:00:00 12,4 11,3 24 13 SSO 1014,0 25 60
20.01.2019 09:00:00 10,4 10,1 24 13 SSO 1013,8 25 24
20.01.2019 08:00:00 9,8 9,8 22 12 S 1013,7 25 -
20.01.2019 07:00:00 9,2 9,2 18 10 S 1013,9 16 -
20.01.2019 06:00:00 - - - - - - - -
20.01.2019 05:00:00 - - - - - - - -
20.01.2019 04:00:00 - - - - - - - -
20.01.2019 03:00:00 - - - - - - - -
20.01.2019 02:00:00 - - - - - - - -
20.01.2019 01:00:00 - - - - - - - -
20.01.2019 00:00:00 - - - - - - - -
19.01.2019 23:00:00 - - - - - - - -
19.01.2019 22:00:00 - - - - - - - -
19.01.2019 21:00:00 - - - - - - - -
19.01.2019 20:00:00 - - - - - - - -
19.01.2019 19:00:00 11,0 11,0 18 10 E 1014,9 16 -
19.01.2019 18:00:00 11,2 11,2 18 10 E 1014,5 16 -
19.01.2019 17:00:00 12,2 11,9 13 7 E 1014,0 20 -
19.01.2019 16:00:00 12,4 12,4 13 7 SE 1014,0 25 -
19.01.2019 15:00:00 14,2 12,6 16 9 S 1013,7 20 60
19.01.2019 14:00:00 14,4 12,8 18 10 S 1014,1 25 60
19.01.2019 13:00:00 14,0 12,7 15 8 S 1014,7 25 60
19.01.2019 12:00:00 13,4 11,8 18 10 SE 1015,6 25 60
19.01.2019 11:00:00 13,2 12,4 15 8 SE 1015,8 25 60
19.01.2019 10:00:00 12,0 11,4 16 9 SE 1015,4 25 60
19.01.2019 09:00:00 10,6 10,1 18 10 SE 1015,1 25 -
19.01.2019 08:00:00 10,4 9,6 15 8 SSE 1014,4 25 -
19.01.2019 07:00:00 10,0 10,0 21 11 N 1014,1 16 -
19.01.2019 06:00:00 - - - - - - - -
19.01.2019 05:00:00 - - - - - - - -
19.01.2019 04:00:00 - - - - - - - -
19.01.2019 03:00:00 - - - - - - - -
19.01.2019 02:00:00 - - - - - - - -
19.01.2019 01:00:00 - - - - - - - -
19.01.2019 00:00:00 - - - - - - - -
18.01.2019 23:00:00 - - - - - - - -
18.01.2019 22:00:00 - - - - - - - -
18.01.2019 21:00:00 - - - - - - - -
18.01.2019 20:00:00 - - - - - - - -
18.01.2019 19:00:00 11,4 11,4 18 10 SO 1015,4 16 -
18.01.2019 18:00:00 13,2 13,2 18 10 OSO 1015,0 20 -
18.01.2019 17:00:00 12,6 12,6 22 12 S 1015,0 20 -
18.01.2019 16:00:00 13,4 11,6 24 13 S 1015,2 20 24
18.01.2019 15:00:00 14,0 10,6 22 12 S 1015,0 20 18
18.01.2019 14:00:00 10,6 9,8 22 12 S 1015,6 20 30
18.01.2019 13:00:00 10,8 10,2 24 13 S 1015,6 20 30
18.01.2019 12:00:00 10,4 8,8 18 10 S 1017,0 20 -
18.01.2019 11:00:00 10,2 9,7 18 10 S 1016,8 20 -
18.01.2019 10:00:00 9,6 9,6 26 14 S 1017,1 12 -
18.01.2019 09:00:00 9,8 9,8 24 13 S 1016,3 10 -
18.01.2019 08:00:00 10,8 9,1 22 12 O 1015,8 16 -
18.01.2019 07:00:00 10,0 7,9 24 13 O 1015,8 12 -
18.01.2019 06:00:00 - - - - - - - -
18.01.2019 05:00:00 - - - - - - - -
18.01.2019 04:00:00 - - - - - - - -
18.01.2019 03:00:00 - - - - - - - -
18.01.2019 02:00:00 - - - - - - - -
18.01.2019 01:00:00 - - - - - - - -
18.01.2019 00:00:00 - - - - - - - -
17.01.2019 23:00:00 - - - - - - - -
17.01.2019 22:00:00 - - - - - - - -
17.01.2019 21:00:00 - - - - - - - -
17.01.2019 20:00:00 - - - - - - - -
17.01.2019 19:00:00 10,0 10,0 18 10 S 1018,1 20 0
17.01.2019 18:00:00 11,8 11,8 26 14 S 1018,2 20 0
17.01.2019 17:00:00 12,2 10,4 28 15 S 1018,0 20 -
17.01.2019 16:00:00 12,0 8,7 29 16 S 1018,1 20 0
17.01.2019 15:00:00 13,0 10,9 26 14 S 1018,9 20 0
17.01.2019 14:00:00 13,0 10,5 26 14 S 1018,3 20 24
17.01.2019 13:00:00 10,0 5,8 34 18 S 1019,3 20 0
17.01.2019 12:00:00 12,0 8,7 21 11 S 1020,0 20 60
17.01.2019 11:00:00 11,0 8,9 26 14 S 1020,8 20 60
17.01.2019 10:00:00 10,0 10,0 24 13 S 1020,8 20 36
17.01.2019 09:00:00 10,0 10,0 24 13 S 1020,6 20 30
17.01.2019 08:00:00 9,0 9,0 18 10 S 1020,9 20 0
17.01.2019 07:00:00 9,0 9,0 15 8 S 1020,9 20 0
17.01.2019 06:00:00 - - - - - - - -
17.01.2019 05:00:00 - - - - - - - -

tt = Temperatura
td = dewpoint
ff = velocità del vento
dd = direzione del vento
ppp = reduced air pressure
vv = visibility
sd = ore di luce

Stazioni seguenti

WeatherPro
AMSI
MeteoEarth